Year,Month,Day,Hour,Minute,Value (Times are PST for temperature in C)
2016,08,25,00,00,17.80
2016,08,25,00,01,17.80
2016,08,25,00,02,17.90
2016,08,25,00,03,17.90
2016,08,25,00,04,17.90
2016,08,25,00,05,17.90
2016,08,25,00,06,17.90
2016,08,25,00,07,17.90
2016,08,25,00,08,17.90
2016,08,25,00,09,17.90
2016,08,25,00,10,17.90
2016,08,25,00,11,18.10
2016,08,25,00,12,18.10
2016,08,25,00,13,18.10
2016,08,25,00,14,18.10
2016,08,25,00,15,18.10
2016,08,25,00,16,18.10
2016,08,25,00,17,18.10
2016,08,25,00,18,18.10
2016,08,25,00,19,18.10
2016,08,25,00,20,18.10
2016,08,25,00,21,18.10
2016,08,25,00,22,17.90
2016,08,25,00,23,17.90
2016,08,25,00,24,17.90
2016,08,25,00,25,17.90
2016,08,25,00,26,17.90
2016,08,25,00,27,17.90
2016,08,25,00,28,17.90
2016,08,25,00,29,17.90
2016,08,25,00,30,17.90
2016,08,25,00,31,17.90
2016,08,25,00,32,17.80
2016,08,25,00,33,17.80
2016,08,25,00,34,17.80
2016,08,25,00,35,17.70
2016,08,25,00,36,17.70
2016,08,25,00,37,17.60
2016,08,25,00,38,17.60
2016,08,25,00,39,17.50
2016,08,25,00,40,17.50
2016,08,25,00,41,17.40
2016,08,25,00,42,17.40
2016,08,25,00,43,17.30
2016,08,25,00,44,17.30
2016,08,25,00,45,17.30
2016,08,25,00,46,17.20
2016,08,25,00,47,17.20
2016,08,25,00,48,17.10
2016,08,25,00,49,17.10
2016,08,25,00,50,17.00
2016,08,25,00,51,17.00
2016,08,25,00,52,16.90
2016,08,25,00,53,16.90
2016,08,25,00,54,16.90
2016,08,25,00,55,16.90
2016,08,25,00,56,16.90
2016,08,25,00,57,16.80
2016,08,25,00,58,16.80
2016,08,25,00,59,16.80
2016,08,25,01,00,16.70
2016,08,25,01,01,16.70
2016,08,25,01,02,16.70
2016,08,25,01,03,16.70
2016,08,25,01,04,16.70
2016,08,25,01,05,16.70
2016,08,25,01,06,16.70
2016,08,25,01,07,16.70
2016,08,25,01,08,16.70
2016,08,25,01,09,16.70
2016,08,25,01,10,16.70
2016,08,25,01,11,16.70
2016,08,25,01,12,16.70
2016,08,25,01,13,16.60
2016,08,25,01,14,16.60
2016,08,25,01,15,16.60
2016,08,25,01,16,16.60
2016,08,25,01,17,16.40
2016,08,25,01,18,16.40
2016,08,25,01,19,16.40
2016,08,25,01,20,16.40
2016,08,25,01,21,16.40
2016,08,25,01,22,16.30
2016,08,25,01,23,16.30
2016,08,25,01,24,16.30
2016,08,25,01,25,16.30
2016,08,25,01,26,16.20
2016,08,25,01,27,16.20
2016,08,25,01,28,16.20
2016,08,25,01,29,16.10
2016,08,25,01,30,16.10
2016,08,25,01,31,16.10
2016,08,25,01,32,16.10
2016,08,25,01,33,16.10
2016,08,25,01,34,16.10
2016,08,25,01,35,16.10
2016,08,25,01,36,16.10
2016,08,25,01,37,16.10
2016,08,25,01,38,16.10
2016,08,25,01,39,16.00
2016,08,25,01,40,15.90
2016,08,25,01,41,15.90
2016,08,25,01,42,15.90
2016,08,25,01,43,15.90
2016,08,25,01,44,15.90
2016,08,25,01,45,15.90
2016,08,25,01,46,15.80
2016,08,25,01,47,15.80
2016,08,25,01,48,15.90
2016,08,25,01,49,15.80
2016,08,25,01,50,15.80
2016,08,25,01,51,15.80
2016,08,25,01,52,15.80
2016,08,25,01,53,15.80
2016,08,25,01,54,15.80
2016,08,25,01,55,15.80
2016,08,25,01,56,15.80
2016,08,25,01,57,15.80
2016,08,25,01,58,15.80
2016,08,25,01,59,15.80
2016,08,25,02,00,15.80
2016,08,25,02,01,15.80
2016,08,25,02,02,15.80
2016,08,25,02,03,15.80
2016,08,25,02,04,15.80
2016,08,25,02,05,15.80
2016,08,25,02,06,15.70
2016,08,25,02,07,15.60
2016,08,25,02,08,15.60
2016,08,25,02,09,15.50
2016,08,25,02,10,15.40
2016,08,25,02,11,15.40
2016,08,25,02,12,15.40
2016,08,25,02,13,15.30
2016,08,25,02,14,15.30
2016,08,25,02,15,15.30
2016,08,25,02,16,15.30
2016,08,25,02,17,15.30
2016,08,25,02,18,15.30
2016,08,25,02,19,15.30
2016,08,25,02,20,15.30
2016,08,25,02,21,15.30
2016,08,25,02,22,15.30
2016,08,25,02,23,15.30
2016,08,25,02,24,15.30
2016,08,25,02,25,15.30
2016,08,25,02,26,15.30
2016,08,25,02,27,15.30
2016,08,25,02,28,15.30
2016,08,25,02,29,15.30
2016,08,25,02,30,15.30
2016,08,25,02,31,15.30
2016,08,25,02,32,15.30
2016,08,25,02,33,15.20
2016,08,25,02,34,15.20
2016,08,25,02,35,15.20
2016,08,25,02,36,15.20
2016,08,25,02,37,15.20
2016,08,25,02,38,15.20
2016,08,25,02,39,15.20
2016,08,25,02,40,15.20
2016,08,25,02,41,15.20
2016,08,25,02,42,15.20
2016,08,25,02,43,15.20
2016,08,25,02,44,15.20
2016,08,25,02,45,15.20
2016,08,25,02,46,15.20
2016,08,25,02,47,15.20
2016,08,25,02,48,15.20
2016,08,25,02,49,15.10
2016,08,25,02,50,15.10
2016,08,25,02,51,15.10
2016,08,25,02,52,15.10
2016,08,25,02,53,15.10
2016,08,25,02,54,15.10
2016,08,25,02,55,15.00
2016,08,25,02,56,15.00
2016,08,25,02,57,15.00
2016,08,25,02,58,15.00
2016,08,25,02,59,15.00
2016,08,25,03,00,14.90
2016,08,25,03,01,14.90
2016,08,25,03,02,14.90
2016,08,25,03,03,14.90
2016,08,25,03,04,14.90
2016,08,25,03,05,14.90
2016,08,25,03,06,14.80
2016,08,25,03,07,14.80
2016,08,25,03,08,14.80
2016,08,25,03,09,14.80
2016,08,25,03,10,14.80
2016,08,25,03,11,14.80
2016,08,25,03,12,14.80
2016,08,25,03,13,14.70
2016,08,25,03,14,14.70
2016,08,25,03,15,14.70
2016,08,25,03,16,14.60
2016,08,25,03,17,14.60
2016,08,25,03,18,14.60
2016,08,25,03,19,14.70
2016,08,25,03,20,14.70
2016,08,25,03,21,14.80
2016,08,25,03,22,14.80
2016,08,25,03,23,14.80
2016,08,25,03,24,14.80
2016,08,25,03,25,14.80
2016,08,25,03,26,14.80
2016,08,25,03,27,14.80
2016,08,25,03,28,14.80
2016,08,25,03,29,14.80
2016,08,25,03,30,14.80
2016,08,25,03,31,14.80
2016,08,25,03,32,14.80
2016,08,25,03,33,14.70
2016,08,25,03,34,14.70
2016,08,25,03,35,14.70
2016,08,25,03,36,14.70
2016,08,25,03,37,14.70
2016,08,25,03,38,14.70
2016,08,25,03,39,14.80
2016,08,25,03,40,14.90
2016,08,25,03,41,15.00
2016,08,25,03,42,15.10
2016,08,25,03,43,15.10
2016,08,25,03,44,15.20
2016,08,25,03,45,15.20
2016,08,25,03,46,15.30
2016,08,25,03,47,15.30
2016,08,25,03,48,15.30
2016,08,25,03,49,15.20
2016,08,25,03,50,15.20
2016,08,25,03,51,15.20
2016,08,25,03,52,15.20
2016,08,25,03,53,15.10
2016,08,25,03,54,15.10
2016,08,25,03,55,15.10
2016,08,25,03,56,15.10
2016,08,25,03,57,15.00
2016,08,25,03,58,15.00
2016,08,25,03,59,15.00
2016,08,25,04,00,15.00
2016,08,25,04,01,15.00
2016,08,25,04,02,15.00
2016,08,25,04,03,15.00
2016,08,25,04,04,15.00
2016,08,25,04,05,15.00
2016,08,25,04,06,15.10
2016,08,25,04,07,15.10
2016,08,25,04,08,15.10
2016,08,25,04,09,15.10
2016,08,25,04,10,15.10
2016,08,25,04,11,15.10
2016,08,25,04,12,15.10
2016,08,25,04,13,15.10
2016,08,25,04,14,15.20
2016,08,25,04,15,15.20
2016,08,25,04,16,15.20
2016,08,25,04,17,15.20
2016,08,25,04,18,15.20
2016,08,25,04,19,15.30
2016,08,25,04,20,15.30
2016,08,25,04,21,15.40
2016,08,25,04,22,15.40
2016,08,25,04,23,15.40
2016,08,25,04,24,15.40
2016,08,25,04,25,15.40
2016,08,25,04,26,15.40
2016,08,25,04,27,15.40
2016,08,25,04,28,15.40
2016,08,25,04,29,15.30
2016,08,25,04,30,15.30
2016,08,25,04,31,15.30
2016,08,25,04,32,15.30
2016,08,25,04,33,15.30
2016,08,25,04,34,15.30
2016,08,25,04,35,15.40
2016,08,25,04,36,15.40
2016,08,25,04,37,15.40
2016,08,25,04,38,15.40
2016,08,25,04,39,15.40
2016,08,25,04,40,15.40
2016,08,25,04,41,15.40
2016,08,25,04,42,15.30
2016,08,25,04,43,15.30
2016,08,25,04,44,15.30
2016,08,25,04,45,15.30
2016,08,25,04,46,15.20
2016,08,25,04,47,15.20
2016,08,25,04,48,15.10
2016,08,25,04,49,15.10
2016,08,25,04,50,15.00
2016,08,25,04,51,14.90
2016,08,25,04,52,14.90
2016,08,25,04,53,14.80
2016,08,25,04,54,14.80
2016,08,25,04,55,14.80
2016,08,25,04,56,14.80
2016,08,25,04,57,14.70
2016,08,25,04,58,14.70
2016,08,25,04,59,14.80
2016,08,25,05,00,14.80
2016,08,25,05,01,14.80
2016,08,25,05,02,14.80
2016,08,25,05,03,14.80
2016,08,25,05,04,14.80
2016,08,25,05,05,14.70
2016,08,25,05,06,14.70
2016,08,25,05,07,14.60
2016,08,25,05,08,14.60
2016,08,25,05,09,14.60
2016,08,25,05,10,14.60
2016,08,25,05,11,14.60
2016,08,25,05,12,14.50
2016,08,25,05,13,14.50
2016,08,25,05,14,14.50
2016,08,25,05,15,14.50
2016,08,25,05,16,14.40
2016,08,25,05,17,14.40
2016,08,25,05,18,14.40
2016,08,25,05,19,14.40
2016,08,25,05,20,14.40
2016,08,25,05,21,14.40
2016,08,25,05,22,14.40
2016,08,25,05,23,14.40
2016,08,25,05,24,14.40
2016,08,25,05,25,14.40
2016,08,25,05,26,14.30
2016,08,25,05,27,14.30
2016,08,25,05,28,14.30
2016,08,25,05,29,14.30
2016,08,25,05,30,14.30
2016,08,25,05,31,14.30
2016,08,25,05,32,14.20
2016,08,25,05,33,14.20
2016,08,25,05,34,14.20
2016,08,25,05,35,14.20
2016,08,25,05,36,14.20
2016,08,25,05,37,14.20
2016,08,25,05,38,14.10
2016,08,25,05,39,14.10
2016,08,25,05,40,14.10
2016,08,25,05,41,14.10
2016,08,25,05,42,14.10
2016,08,25,05,43,14.10
2016,08,25,05,44,14.20
2016,08,25,05,45,14.20
2016,08,25,05,46,14.20
2016,08,25,05,47,14.30
2016,08,25,05,48,14.30
2016,08,25,05,49,14.40
2016,08,25,05,50,14.40
2016,08,25,05,51,14.40
2016,08,25,05,52,14.50
2016,08,25,05,53,14.50
2016,08,25,05,54,14.50
2016,08,25,05,55,14.50
2016,08,25,05,56,14.50
2016,08,25,05,57,14.50
2016,08,25,05,58,14.50
2016,08,25,05,59,14.40
2016,08,25,06,00,14.40
2016,08,25,06,01,14.40
2016,08,25,06,02,14.30
2016,08,25,06,03,14.30
2016,08,25,06,04,14.20
2016,08,25,06,05,14.20
2016,08,25,06,06,14.20
2016,08,25,06,07,14.20
2016,08,25,06,08,14.20
2016,08,25,06,09,14.20
2016,08,25,06,10,14.20
2016,08,25,06,11,14.20
2016,08,25,06,12,14.20
2016,08,25,06,13,14.20
2016,08,25,06,14,14.20
2016,08,25,06,15,14.20
2016,08,25,06,16,14.20
2016,08,25,06,17,14.20
2016,08,25,06,18,14.20
2016,08,25,06,19,14.10
2016,08,25,06,20,14.10
2016,08,25,06,21,14.10
2016,08,25,06,22,14.10
2016,08,25,06,23,14.10
2016,08,25,06,24,14.10
2016,08,25,06,25,14.10
2016,08,25,06,26,14.10
2016,08,25,06,27,14.10
2016,08,25,06,28,14.10
2016,08,25,06,29,14.10
2016,08,25,06,30,14.10
2016,08,25,06,31,14.10
2016,08,25,06,32,14.20
2016,08,25,06,33,14.20
2016,08,25,06,34,14.20
2016,08,25,06,35,14.20
2016,08,25,06,36,14.20
2016,08,25,06,37,14.20
2016,08,25,06,38,14.20
2016,08,25,06,39,14.20
2016,08,25,06,40,14.20
2016,08,25,06,41,14.20
2016,08,25,06,42,14.20
2016,08,25,06,43,14.20
2016,08,25,06,44,14.20
2016,08,25,06,45,14.20
2016,08,25,06,46,14.20
2016,08,25,06,47,14.20
2016,08,25,06,48,14.20
2016,08,25,06,49,14.20
2016,08,25,06,50,14.20
2016,08,25,06,51,14.20
2016,08,25,06,52,14.20
2016,08,25,06,53,14.20
2016,08,25,06,54,14.20
2016,08,25,06,55,14.30
2016,08,25,06,56,14.30
2016,08,25,06,57,14.30
2016,08,25,06,58,14.30
2016,08,25,06,59,14.30
2016,08,25,07,00,14.40
2016,08,25,07,01,14.40
2016,08,25,07,02,14.40
2016,08,25,07,03,14.40
2016,08,25,07,04,14.50
2016,08,25,07,05,14.50
2016,08,25,07,06,14.60
2016,08,25,07,07,14.60
2016,08,25,07,08,14.70
2016,08,25,07,09,14.70
2016,08,25,07,10,14.70
2016,08,25,07,11,14.80
2016,08,25,07,12,14.80
2016,08,25,07,13,14.80
2016,08,25,07,14,14.80
2016,08,25,15,57,28.90
2016,08,25,15,58,28.90
2016,08,25,15,59,28.90
2016,08,25,16,00,28.80
2016,08,25,16,01,28.80
2016,08,25,16,02,28.70
2016,08,25,16,03,28.70
2016,08,25,16,04,28.70
2016,08,25,16,05,28.60
2016,08,25,16,06,28.60
2016,08,25,16,07,28.60
2016,08,25,16,08,28.40
2016,08,25,16,09,28.40
2016,08,25,16,10,28.40
2016,08,25,16,11,28.50
2016,08,25,16,12,28.60
2016,08,25,16,13,28.60
2016,08,25,16,14,28.60
2016,08,25,16,15,28.70
2016,08,25,16,16,28.70
2016,08,25,16,17,28.70
2016,08,25,16,18,28.80
2016,08,25,16,19,28.80
2016,08,25,16,20,28.80
2016,08,25,16,21,28.90
2016,08,25,16,22,28.90
2016,08,25,16,23,29.00
2016,08,25,16,24,29.10
2016,08,25,16,25,29.20
2016,08,25,16,26,29.20
2016,08,25,16,28,29.20
2016,08,25,16,29,29.30
2016,08,25,16,30,29.30
2016,08,25,16,31,29.30
2016,08,25,16,32,29.30
2016,08,25,16,33,29.40
2016,08,25,16,34,29.40
2016,08,25,16,35,29.50
2016,08,25,16,36,29.50
2016,08,25,16,37,29.60
2016,08,25,16,38,29.70
2016,08,25,16,39,29.70
2016,08,25,16,40,29.70
2016,08,25,16,41,29.70
2016,08,25,16,42,29.70
2016,08,25,16,43,29.80
2016,08,25,16,44,29.80
2016,08,25,16,45,29.80
2016,08,25,16,46,29.80
2016,08,25,16,47,29.80
2016,08,25,16,48,29.80
2016,08,25,16,49,29.90
2016,08,25,16,50,29.90
2016,08,25,16,51,29.90
2016,08,25,16,52,29.90
2016,08,25,16,53,29.90
2016,08,25,16,54,29.90
2016,08,25,16,55,29.90
2016,08,25,16,56,29.80
2016,08,25,16,57,29.80
2016,08,25,16,58,29.70
2016,08,25,16,59,29.70
2016,08,25,17,00,29.70
2016,08,25,17,01,29.70
2016,08,25,17,02,29.70
2016,08,25,17,03,29.70
2016,08,25,17,04,29.80
2016,08,25,17,05,29.80
2016,08,25,17,06,29.80
2016,08,25,17,07,29.80
2016,08,25,17,08,29.90
2016,08,25,17,09,29.90
2016,08,25,17,10,30.00
2016,08,25,17,11,30.10
2016,08,25,17,12,30.10
2016,08,25,17,13,30.10
2016,08,25,17,14,29.90
2016,08,25,17,15,30.00
2016,08,25,17,16,30.10
2016,08,25,17,17,30.10
2016,08,25,17,18,30.20
2016,08,25,17,19,30.20
2016,08,25,17,20,30.30
2016,08,25,17,21,30.30
2016,08,25,17,22,30.30
2016,08,25,17,23,30.30
2016,08,25,17,24,30.30
2016,08,25,17,25,30.40
2016,08,25,17,26,30.40
2016,08,25,17,27,30.40
2016,08,25,17,28,30.60
2016,08,25,17,29,30.60
2016,08,25,17,30,30.60
2016,08,25,17,31,30.70
2016,08,25,17,32,30.80
2016,08,25,17,33,30.80
2016,08,25,17,34,30.80
2016,08,25,17,35,30.80
2016,08,25,17,36,30.90
2016,08,25,17,37,30.90
2016,08,25,17,38,31.00
2016,08,25,17,39,30.90
2016,08,25,17,40,30.90
2016,08,25,17,41,30.90
2016,08,25,17,42,30.90
2016,08,25,17,43,31.00
2016,08,25,17,44,31.00
2016,08,25,17,45,31.00
2016,08,25,17,46,31.00
2016,08,25,17,47,31.00
2016,08,25,17,48,31.00
2016,08,25,17,49,31.10
2016,08,25,17,50,31.10
2016,08,25,17,51,31.10
2016,08,25,17,52,31.10
2016,08,25,17,53,31.10
2016,08,25,17,54,31.20
2016,08,25,17,55,31.20
2016,08,25,17,56,31.30
2016,08,25,17,57,31.30
2016,08,25,17,58,31.30
2016,08,25,17,59,31.30
2016,08,25,18,00,31.30
2016,08,25,18,01,31.30
2016,08,25,18,02,31.30
2016,08,25,18,03,31.30
2016,08,25,18,04,31.30
2016,08,25,18,05,31.30
2016,08,25,18,06,31.30
2016,08,25,18,07,31.30
2016,08,25,18,08,31.20
2016,08,25,18,09,31.10
2016,08,25,18,10,30.90
2016,08,25,18,11,30.70
2016,08,25,18,12,30.40
2016,08,25,18,13,30.30
2016,08,25,18,14,30.10
2016,08,25,18,15,29.90
2016,08,25,18,16,29.70
2016,08,25,18,17,29.60
2016,08,25,18,18,29.50
2016,08,25,18,19,29.40
2016,08,25,18,20,29.40
2016,08,25,18,21,29.30
2016,08,25,18,22,29.20
2016,08,25,18,23,29.10
2016,08,25,18,24,29.10
2016,08,25,18,25,29.00
2016,08,25,18,26,28.90
2016,08,25,18,27,28.90
2016,08,25,18,28,28.90
2016,08,25,18,29,28.90
2016,08,25,18,30,28.90
2016,08,25,18,31,28.90
2016,08,25,18,32,28.90
2016,08,25,18,33,28.90
2016,08,25,18,34,28.90
2016,08,25,18,35,28.80
2016,08,25,18,36,28.70
2016,08,25,18,37,28.60
2016,08,25,18,38,28.50
2016,08,25,18,39,28.40
2016,08,25,18,40,28.30
2016,08,25,18,41,28.30
2016,08,25,18,42,28.30
2016,08,25,18,43,28.30
2016,08,25,18,44,28.30
2016,08,25,18,45,28.20
2016,08,25,18,46,28.20
2016,08,25,18,47,28.10
2016,08,25,18,48,28.00
2016,08,25,18,49,27.80
2016,08,25,18,50,27.70
2016,08,25,18,51,27.70
2016,08,25,18,52,27.70
2016,08,25,18,53,27.60
2016,08,25,18,54,27.60
2016,08,25,18,55,27.70
2016,08,25,18,56,27.70
2016,08,25,18,57,27.70
2016,08,25,18,58,27.80
2016,08,25,18,59,27.90
2016,08,25,19,00,27.90
2016,08,25,19,01,27.90
2016,08,25,19,02,27.90
2016,08,25,19,03,28.00
2016,08,25,19,04,28.00
2016,08,25,19,05,27.90
2016,08,25,19,06,27.90
2016,08,25,19,07,27.80
2016,08,25,19,08,27.70
2016,08,25,19,09,27.60
2016,08,25,19,10,27.50
2016,08,25,19,11,27.40
2016,08,25,19,12,27.30
2016,08,25,19,13,27.30
2016,08,25,19,14,27.20
2016,08,25,19,15,27.20
2016,08,25,19,16,27.10
2016,08,25,19,17,27.10
2016,08,25,19,18,27.10
2016,08,25,19,19,27.10
2016,08,25,19,20,27.00
2016,08,25,19,21,26.90
2016,08,25,19,22,26.90
2016,08,25,19,23,26.90
2016,08,25,19,24,26.90
2016,08,25,19,25,26.80
2016,08,25,19,26,26.80
2016,08,25,19,27,26.80
2016,08,25,19,28,26.70
2016,08,25,19,29,26.70
2016,08,25,19,30,26.70
2016,08,25,19,31,26.70
2016,08,25,19,32,26.70
2016,08,25,19,33,26.70
2016,08,25,19,34,26.60
2016,08,25,19,35,26.60
2016,08,25,19,36,26.60
2016,08,25,19,37,26.50
2016,08,25,19,38,26.40
2016,08,25,19,39,26.40
2016,08,25,19,40,26.40
2016,08,25,19,41,26.40
2016,08,25,19,42,26.40
2016,08,25,19,43,26.40
2016,08,25,19,44,26.40
2016,08,25,19,45,26.40
2016,08,25,19,46,26.30
2016,08,25,19,47,26.30
2016,08,25,19,48,26.30
2016,08,25,19,49,26.30
2016,08,25,19,50,26.30
2016,08,25,19,51,26.30
2016,08,25,19,52,26.30
2016,08,25,19,53,26.20
2016,08,25,19,54,26.20
2016,08,25,19,55,26.20
2016,08,25,19,56,26.10
2016,08,25,19,57,26.10
2016,08,25,19,58,26.00
2016,08,25,19,59,26.00
2016,08,25,20,00,25.90
2016,08,25,20,01,25.90
2016,08,25,20,02,25.80
2016,08,25,20,03,25.80
2016,08,25,20,04,25.70
2016,08,25,20,05,25.60
2016,08,25,20,06,25.50
2016,08,25,20,07,25.40
2016,08,25,20,08,25.30
2016,08,25,20,09,25.10
2016,08,25,20,10,25.00
2016,08,25,20,11,24.90
2016,08,25,20,12,24.90
2016,08,25,20,13,24.80
2016,08,25,20,14,24.70
2016,08,25,20,15,24.60
2016,08,25,20,16,24.60
2016,08,25,20,17,24.50
2016,08,25,20,18,24.50
2016,08,25,20,19,24.40
2016,08,25,20,20,24.40
2016,08,25,20,21,24.40
2016,08,25,20,22,24.30
2016,08,25,20,23,24.30
2016,08,25,20,24,24.20
2016,08,25,20,25,24.20
2016,08,25,20,26,24.10
2016,08,25,20,27,24.10
2016,08,25,20,28,24.10
2016,08,25,20,29,24.10
2016,08,25,20,30,24.00
2016,08,25,20,31,23.90
2016,08,25,20,32,23.90
2016,08,25,20,33,23.80
2016,08,25,20,34,23.70
2016,08,25,20,35,23.70
2016,08,25,20,36,23.60
2016,08,25,20,37,23.50
2016,08,25,20,38,23.30
2016,08,25,20,39,23.30
2016,08,25,20,40,23.30
2016,08,25,20,41,23.20
2016,08,25,20,42,23.20
2016,08,25,20,43,23.20
2016,08,25,20,44,23.10
2016,08,25,20,45,23.10
2016,08,25,20,46,23.10
2016,08,25,20,47,23.00
2016,08,25,20,48,22.90
2016,08,25,20,49,22.90
2016,08,25,20,50,22.90
2016,08,25,20,51,22.90
2016,08,25,20,52,22.90
2016,08,25,20,53,22.80
2016,08,25,20,54,22.80
2016,08,25,20,55,22.80
2016,08,25,20,56,22.70
2016,08,25,20,57,22.70
2016,08,25,20,58,22.70
2016,08,25,20,59,22.60
2016,08,25,21,00,22.60
2016,08,25,21,01,22.60
2016,08,25,21,02,22.50
2016,08,25,21,03,22.50
2016,08,25,21,04,22.50
2016,08,25,21,05,22.40
2016,08,25,21,06,22.40
2016,08,25,21,07,22.30
2016,08,25,21,08,22.30
2016,08,25,21,09,22.30
2016,08,25,21,10,22.20
2016,08,25,21,11,22.20
2016,08,25,21,12,22.10
2016,08,25,21,13,22.10
2016,08,25,21,14,22.10
2016,08,25,21,15,22.00
2016,08,25,21,16,22.00
2016,08,25,21,17,22.00
2016,08,25,21,18,21.90
2016,08,25,21,19,21.90
2016,08,25,21,20,21.90
2016,08,25,21,21,21.80
2016,08,25,21,22,21.80
2016,08,25,21,23,21.80
2016,08,25,21,24,21.70
2016,08,25,21,25,21.70
2016,08,25,21,26,21.60
2016,08,25,21,27,21.60
2016,08,25,21,28,21.50
2016,08,25,21,29,21.40
2016,08,25,21,30,21.30
2016,08,25,21,31,21.30
2016,08,25,21,32,21.30
2016,08,25,21,33,21.30
2016,08,25,21,34,21.20
2016,08,25,21,35,21.20
2016,08,25,21,36,21.20
2016,08,25,21,37,21.20
2016,08,25,21,38,21.10
2016,08,25,21,39,21.10
2016,08,25,21,40,21.10
2016,08,25,21,41,21.10
2016,08,25,21,42,21.10
2016,08,25,21,43,21.10
2016,08,25,21,44,21.00
2016,08,25,21,45,21.00
2016,08,25,21,46,21.00
2016,08,25,21,47,21.00
2016,08,25,21,48,21.00
2016,08,25,21,49,21.00
2016,08,25,21,50,21.00
2016,08,25,21,51,21.00
2016,08,25,21,52,20.90
2016,08,25,21,53,20.90
2016,08,25,21,54,20.90
2016,08,25,21,55,20.90
2016,08,25,21,56,20.90
2016,08,25,21,57,20.80
2016,08,25,21,58,20.80
2016,08,25,21,59,20.70
2016,08,25,22,00,20.70
2016,08,25,22,01,20.60
2016,08,25,22,02,20.50
2016,08,25,22,03,20.50
2016,08,25,22,04,20.40
2016,08,25,22,05,20.40
2016,08,25,22,06,20.30
2016,08,25,22,07,20.30
2016,08,25,22,08,20.20
2016,08,25,22,09,20.20
2016,08,25,22,10,20.20
2016,08,25,22,11,20.20
2016,08,25,22,12,20.10
2016,08,25,22,13,20.10
2016,08,25,22,14,20.10
2016,08,25,22,15,20.10
2016,08,25,22,16,20.10
2016,08,25,22,17,20.00
2016,08,25,22,18,19.90
2016,08,25,22,19,19.90
2016,08,25,22,20,19.90
2016,08,25,22,21,19.90
2016,08,25,22,22,19.90
2016,08,25,22,23,19.90
2016,08,25,22,24,19.90
2016,08,25,22,25,19.90
2016,08,25,22,26,19.90
2016,08,25,22,27,19.80
2016,08,25,22,28,19.80
2016,08,25,22,29,19.80
2016,08,25,22,30,19.80
2016,08,25,22,31,19.70
2016,08,25,22,32,19.70
2016,08,25,22,33,19.60
2016,08,25,22,34,19.60
2016,08,25,22,35,19.50
2016,08,25,22,36,19.50
2016,08,25,22,37,19.50
2016,08,25,22,38,19.50
2016,08,25,22,39,19.40
2016,08,25,22,40,19.40
2016,08,25,22,41,19.30
2016,08,25,22,42,19.30
2016,08,25,22,43,19.30
2016,08,25,22,44,19.30
2016,08,25,22,45,19.20
2016,08,25,22,46,19.20
2016,08,25,22,47,19.10
2016,08,25,22,48,19.10
2016,08,25,22,49,19.10
2016,08,25,22,50,19.10
2016,08,25,22,51,19.10
2016,08,25,22,52,19.10
2016,08,25,22,53,19.10
2016,08,25,22,54,19.10
2016,08,25,22,55,19.10
2016,08,25,22,56,19.10
2016,08,25,22,57,19.20
2016,08,25,22,58,19.30
2016,08,25,22,59,19.30
2016,08,25,23,00,19.40
2016,08,25,23,01,19.50
2016,08,25,23,02,19.50
2016,08,25,23,03,19.50
2016,08,25,23,04,19.60
2016,08,25,23,05,19.60
2016,08,25,23,06,19.60
2016,08,25,23,07,19.60
2016,08,25,23,08,19.60
2016,08,25,23,09,19.60
2016,08,25,23,10,19.70
2016,08,25,23,11,19.80
2016,08,25,23,12,19.80
2016,08,25,23,13,19.90
2016,08,25,23,14,19.90
2016,08,25,23,15,19.90
2016,08,25,23,16,19.90
2016,08,25,23,17,20.00
2016,08,25,23,18,20.00
2016,08,25,23,19,20.00
2016,08,25,23,20,19.90
2016,08,25,23,21,19.90
2016,08,25,23,22,19.90
2016,08,25,23,23,19.80
2016,08,25,23,24,19.70
2016,08,25,23,25,19.60
2016,08,25,23,26,19.60
2016,08,25,23,27,19.50
2016,08,25,23,28,19.40
2016,08,25,23,29,19.40
2016,08,25,23,30,19.30
2016,08,25,23,31,19.30
2016,08,25,23,32,19.20
2016,08,25,23,33,19.20
2016,08,25,23,34,19.10
2016,08,25,23,35,19.10
2016,08,25,23,36,19.10
2016,08,25,23,37,19.10
2016,08,25,23,38,18.90
2016,08,25,23,39,18.90
2016,08,25,23,40,18.90
2016,08,25,23,41,18.90
2016,08,25,23,42,18.90
2016,08,25,23,43,18.90
2016,08,25,23,44,18.90
2016,08,25,23,45,18.90
2016,08,25,23,46,18.90
2016,08,25,23,47,18.90
2016,08,25,23,48,18.90
2016,08,25,23,49,18.90
2016,08,25,23,50,18.90
2016,08,25,23,51,18.90
2016,08,25,23,52,18.90
2016,08,25,23,53,18.90
2016,08,25,23,54,18.90
2016,08,25,23,55,18.90
2016,08,25,23,56,18.90
2016,08,25,23,57,18.90
2016,08,25,23,58,18.90
2016,08,25,23,59,19.00
